www.pogodaiklimat.ru

ПОГОДА в Boromo

  • Прогноз погоды в Boromo
  • Монитор погоды в Boromo
  • Климат города

АРХИВ ПОГОДЫ в Boromo

Время (UTC), дата Ветер
(напр.,м/с)
 
Видим.   Явления Облачность Т
(С)
Тd
(С)
f
(%)
Тe
(С)
Тes
(С)
Комфортность P
(гПа)
Po
(гПа)
Тmin
(С)
Tmax
(С)
R
(мм)
S
(см)
18 9.01 штиль 0 15 км 9/0
[Ci sp]
+32.2 +1.3 14 +29 +29 жарко 1008.6 978.3 +36.1
21 9.01 штиль 0 10 км 9/0
[Ci sp]
+25.8 +4.1 25 +25 +25 комфорт 1011.1 980.6
00 10.01 штиль 0 10 км 9/0
[Ci sp]
+23.2 +2.1 25 +23 +23 комфорт 1010.8 980.6
03 10.01 штиль 0 10 км 9/0
[Ci sp]
+20.8 +3.0 31 +21 +21 комфорт 1009.7 979.5
06 10.01 штиль 0 10 км 9/0
[Ac trans Ci sp]
+18.1 +3.2 37 +18 +18 1010.2 979.6 +17.7
09 10.01 штиль 0 10 км 9/0
[Ci sp]
+22.2 -0.6 22 +21 +28 комфорт 1011.7 981.1
12 10.01 СВ 3 10 км 9/0
[Ci sp]
+31.4 -4.9 9 +28 +38 жарко 1009.5 979.3
15 10.01 В 1 10 км 9/0
[Ci sp]
+33.8 -3.6 9 +30 +38 жарко 1006.7 976.5
18 10.01 штиль 0 10 км 9/0
[Ci sp]
+31.4 +0.5 14 +28 +28 жарко 1007.0 976.6 +34.4
21 10.01 штиль 0 10 км 9/0
[Ci sp]
+24.4 +4.1 27 +24 +24 комфорт 1009.2 978.5
00 11.01 штиль 0 10 км 9/0
[Ac trans Ci sp]
+21.8 +0.8 25 +21 +21 комфорт 1009.0 978.7
03 11.01 штиль 0 10 км 9/0
[Ci sp]
+20.6 -5.3 17 +20 +20 1008.7 978.5
06 11.01 штиль 0 10 км 9/0
[Ac As Ci sp]
+19.9 -2.8 21 +20 +20 1008.8 978.4 +19.0
09 11.01 СВ 2 15 км 9/0
[Ac cast Ci sp]
+22.4 -4.1 17 +21 +25 комфорт 1011.2 980.5
12 11.01 СВ 3 15 км 9/0
[Ac cast Ci sp]
+29.2 -12.5 6 +25 +32 комфорт 1010.2 979.7
15 11.01 СВ 2 15 км 9/0
[Ac cast Ci sp]
+31.2 -8.2 7 +27 +31 жарко 1007.9 977.6
18 11.01 штиль 0 15 км 9/0
[Ac cast Ci sp]
+29.2 +1.3 17 +27 +27 жарко 1008.9 978.4 +32.0
21 11.01 штиль 0 10 км 9/0
[Ac trans Ci sp]
+23.4 +2.2 25 +23 +23 комфорт 1011.3 980.6
00 12.01 штиль 0 10 км 9/0
[Ac trans Ci sp]
+20.0 +1.9 30 +20 +20 1011.0 980.4
03 12.01 штиль 0 10 км 9/0
[Ci sp]
+17.7 +0.2 31 +18 +18 1009.5 979.0
06 12.01 штиль 0 10 км 9/0
[Ac trans Ci sp]
+17.6 -6.9 18 +18 +18 1010.6 979.9 +17.0
09 12.01 СВ 2 15 км 6/0
[Ci sp]
+21.0 -12.2 10 +21 +26 комфорт 1013.1 982.2
12 12.01 СВ 2 15 км 6/0
[Ci sp]
+29.5 -8.0 8 +26 +39 жарко 1012.1 981.5
15 12.01 СЗ 2 15 км 9/0
[Ci sp]
+31.9 -6.8 8 +28 +34 жарко 1010.1 979.6
18 12.01 штиль 0 15 км 9/0
[Ci sp]
+29.8 -3.4 11 +26 +26 жарко 1010.7 980.0 +32.5
21 12.01 штиль 0 10 км 9/0
[Ci sp]
+23.7 +1.4 23 +23 +23 комфорт 1013.2 982.3
00 13.01 штиль 0 10 км 9/0
[Ci sp]
+20.9 -5.0 17 +20 +20 1012.8 982.2
03 13.01 В 1 10 км 9/0
[Ci sp]
+18.3 -6.7 18 +19 +19 1011.6 981.1
06 13.01 СВ 1 10 км 9/0
[Ci sp]
+16.9 -6.1 20 +18 +18 1012.7 981.9 +16.4
09 13.01 СВ 2 10 км 9/0
[Ac trans Ci sp]
+21.0 -6.3 15 +21 +26 комфорт 1014.9 984.0
12 13.01 СВ 4 10 км 9/0
[Cs]
+26.6 -6.3 11 +24 +32 комфорт 1012.9 982.2
15 13.01 СВ 3 10 км 9/0
[Ac trans Ci sp]
+29.8 -3.4 11 +26 +32 жарко 1010.3 979.7
18 13.01 СВ 1 10 км 9/0
[Ci sp]
+27.2 -2.9 14 +25 +25 комфорт 1011.0 980.1 +29.9
21 13.01 штиль 0 10 км 9/0
[Ci sp]
+21.7 +2.7 29 +22 +22 комфорт 1013.0 982.0
00 14.01 штиль 0 10 км 9/0
[Ci sp]
+18.4 +1.4 32 +18 +18 1013.1 982.3
03 14.01 штиль 0 10 км 9/0
[Ci sp]
+16.8 +2.0 37 +17 +17 1011.5 980.8
06 14.01 штиль 0 10 км 9/0
[Ac trans Ci sp]
+16.6 +0.7 34 +17 +17 1011.5 980.6 +16.0
09 14.01 СВ 2 10 км 9/0
[Ci sp]
+19.3 -0.8 26 +20 +25 1013.3 982.3
12 14.01 В 3 10 км 9/0
[Ci sp]
+28.0 -4.1 12 +25 +36 комфорт 1011.2 980.4
15 14.01 В 1 10 км 8/0
[Ci sp]
+30.8 -3.5 11 +27 +35 жарко 1008.2 977.6
18 14.01 штиль 0 10 км 9/0
[Ci sp]
+29.0 -1.8 13 +26 +26 жарко 1008.3 977.7 +31.4
21 14.01 штиль 0 10 км 9/0
[Ci sp]
+23.0 +0.7 23 +22 +22 комфорт 1010.2 979.3
00 15.01 штиль 0 10 км 9/0
[Ci sp]
+18.6 +2.4 34 +19 +19 1010.0 979.3
03 15.01 штиль 0 10 км 9/0
[Ci sp]
+17.0 +1.7 36 +17 +17 1009.5 978.9
06 15.01 штиль 0 10 км 9/0
[Ci sp]
+15.1 +1.1 39 +15 +15 1009.9 979.1 +14.7
09 15.01 штиль 0 15 км 8/0
[Ci sp]
+20.8 -1.6 22 +20 +28 1012.0 981.2
12 15.01 ЮВ 3 15 км 8/0
[Ci sp]
+30.5 -2.9 11 +27 +38 жарко 1010.2 979.7
15 15.01 штиль 0 15 км 9/0
[Ci sp]
+33.6 +0.2 12 +30 +39 жарко 1007.3 977.0
18 15.01 штиль 0 15 км 9/0
[Ci sp]
+31.0 +1.2 15 +28 +28 жарко 1008.2 977.6 +34.0
21 15.01 штиль 0 19 км 9/0
[Ci sp]
+23.2 +4.1 29 +23 +23 комфорт 1010.7 979.9
00 16.01 штиль 0 10 км 9/0
[Ci sp]
+20.7 +0.8 27 +21 +21 комфорт 1009.9 979.5
03 16.01 штиль 0 10 км 9/0
[Ci sp]
+18.0 +3.6 38 +18 +18 1008.7 978.3
06 16.01 штиль 0 10 км 9/0
[Ac As Ci sp]
+17.0 +2.0 36 +17 +17 1009.4 978.8 +16.0
09 16.01 СВ 1 10 км 9/0
[Ac trans Ci sp]
+22.4 -0.2 22 +22 +28 комфорт 1012.1 981.4
12 16.01 СВ 2 10 км 9/0
[Ci sp]
+31.7 -5.0 9 +28 +41 жарко 1009.6 979.2
15 16.01 СВ 3 10 км 9/0
[Ci sp]
+34.9 -1.7 10 +31 +37 жарко 1006.4 976.1

 

Местоположение метеостанции Boromo (Буркина-Фасо): широта 11.75 долгота -2.93 высота над уровнем моря 271 м.

В архиве по умолчанию представлена погода в Boromo за последнюю неделю. Архивные данные за месяц целиком и за предыдущие месяцы, начиная с января 2011 года, Вы можете получить, выбрав интересующий диапазон дат из раскрывающегося списка и нажав кнопку "Ввод!".

Внимание! Время в таблицах - всемирное. Для получения местного времени необходимо прибавить поправку, которая в Boromo равна 0 ч.

Ветер - указаны скорость ветра в м/с - средняя за 10 мин, порывы в срок и между сроками (в фигурных скобках) и направление, откуда дует ветер: С - северный, СВ - северо-восточный, В - восточный, ЮВ - юго-восточный, Ю - южный, ЮЗ - юго-западный, З - западный, СЗ - северо-западный.
Видимость - горизонтальная дальность видимости в метрах или километрах. При видимости от 1 до 10 км при отсутствии осадков обычно наблюдается дымка, при ухудшении видимости до 1 км и менее - туман. В сухую погоду видимость может ухудшаться дымом, пылью или мглою.
Явления - указаны атмосферные явления, наблюдавшиеся в срок или в последний час перед сроком; фигурными скобками обозначены явления, наблюдавшиеся между сроками (за 1-3 часа до срока); квадратными скобками обозначены град или гололедные отложения с указанием их диаметра в мм.
Облачность - указаны через наклонную черту общая и нижняя облачность в баллах и высота нижней границы облаков в метрах; квадратными скобками обозначены формы облаков: Ci - перистые, Cs - перисто-слоистые, Cc - перисто-кучевые, Ac - высококучевые, As - высокослоистые, Sc - слоисто-кучевые, Ns - слоисто-дождевые, Cu - кучевые, Cb - кучево-дождевые. Подробнее классификацию облаков см. в Атласе облаков (PDF).
T - Температура воздуха - температура, измеренная на высоте 2 м над землей.
Td - Температура точки росы - температура, при понижении до которой содержащийся в воздухе водяной пар достигнет насыщения.
f - Относительная влажность воздуха - влажноcть воздуха, измеренная на высоте 2 м над землей.
Te - Эффективная температура - температура, которую ощущает одетый по сезону человек в тени. Характеристика душности погоды. При расчете учитывается влияние влажности воздуха и скорости ветра на теплоощущения человека.
Tes - Эффективная температура на солнце - температура, которую ощущает человек, с поправкой на солнечный нагрев. Характеристика знойности погоды. Зависит от высоты солнца над горизонтом, облачности и скорости ветра. Ночью, в пасмурную погоду, а также при ветре 12 м/с и более поправка равна нулю.
P - Атмосферное давление - приведенное к уровню моря атмосферное давление.
Po - Атмосферное давление - измеренное на уровне метеостанции атмосферное давление.
Tmin - Минимальная температура - минимум температуры воздуха на высоте 2 м над землей.
Tmax - Максимальная температура - максимум температуры воздуха на высоте 2 м над землей.
R - Количество осадков - Количество выпавших осадков, мм. При наведении курсора мыши на число - период времени, за который выпало указанное количество осадков.
S - Снежный покров - Высота снежного покрова, см. При наведении курсора мыши на число - состояние снежного покрова и степень покрытия местности в баллах.